SL-19 DEB

Satellite information

Favourite Embed

Satellite Type and Status

DEBRISIN ORBIT

Key statistics

Satellite SL-19 DEB at a glance.

Uptime

5666

Days in orbit

Revolutions

≈ 14.6

Per day

Orbit

SSO

Sun Synchronous Orbit

Inclination

98.2

Latest

Satellite identification and parameters

Extended collection of information and parameters for SL-19 DEB.

Object identification

Identified? True

Debris? True

Object name: SL-19 DEB

International designator: 2009-059C

Object number (NORAD): 36038

Object ID (CCSDS): 36038

Country: COMMONWEALTH OF INDEPENDENT STATES (CIS)

Current information (Y/N): Y

RCS size: MEDIUM

Orbital parameters

Period: 98.665 minutes

Inclination: 98.1756 deg

SMA: 7073.0 km

Apoapsis: 702.285 km

Periapsis: 687.445 km

RAAN: 311.9547 deg

Eccentricy: 0.001049

Argument of periapsis: 36.8624 deg

Mean anomaly: 334.1097 deg

Mean motion: 14.59477054 rev/day

Mean motion (dot): 0.00001143 rev/day2

B* drag term: 0.00025049 1/REarth

Two-line elements (TLE)

Creation date: May 8, 2025, 3:01 a.m.

Reference frame: TEME

Reference center: EARTH

Epoch: May 7, 2025, 6:35 p.m. UTC

TLE line 0: 0 SL-19 DEB

TLE line 1: 1 36038U 09059C 25127.77461874 .00001143 00000-0 25049-3 0 9996

TLE line 2: 2 36038 98.1756 311.9547 0010490 36.8624 334.1097 14.59477054823917

Live tracking on map

Real-time ground track for satellite SL-19 DEB.

In-orbit conjunctions

A list of the most updated potential collisions computed for object SL-19 DEB.

Target Orbit TCA Probability of collision Miss distance Type
OV2-1 LEO 2024-10-31 19:18:17 0.000118031 971.0 (m) PAYLOAD

Associated space launch

SMOS (Soil Moisture and Ocean Salinity) is a earth observation satellite operated by ESA. It is intented to provide new insights into Earth's water cycle and climate.

SL-19 DEB was lifted into orbit during the mission ‘Rokot / Briz-KM | SMOS’, on board a Rokot/Briz-KM space rocket.

The launch took place on Nov. 2, 2009, 1:50 a.m. from 133/3 (133L).

For more information about the launch, click the button.

Launch to space Rokot / Briz-KM | SMOS
Rokot / Briz-KM | SMOS

Agency: N/A

Status: Launch Successful

Launch date: Nov. 2, 2009, 1:50 a.m. UTC

Rocket: Rokot/Briz-KM

Launch pad: 133/3 (133L)

Location: Plesetsk Cosmodrome, Russian Federation

...

Latest news about this satellite

News about space launch
Proba-2’s glimpse of home

Proba-2’s glimpse of home


Newsletter sign-up

Weekly statistics, charts and insights to help you stay on top of the space industry.